Track ONEWEB-0435 now! 10-day predictions ONEWEB-0435 is classified as:
1 51632U 22012L 22224.00001157 -.00009347 00000-0 -26836-1 0 9991 2 51632 87.8819 315.6305 0002882 94.2318 316.9149 13.10378782 26562